, LA

(GMT )
Salt Point

Weather History for KP92 - November, 2012

Change the Weather History Date:

Friday, November 16, 2012

  Actual Average Record
Temperature  
Mean Temperature 56 °F -  
Max Temperature 66 °F 67 °F 79 °F (2013)
Min Temperature 46 °F 52 °F 39 °F (1997)
Degree Days  
Heating Degree Days 9    
Growing Degree Days 6 (Base 50)    
Moisture  
Dew Point 43 °F    
Average Humidity 64    
Maximum Humidity 86    
Minimum Humidity 39    
Precipitation  
Precipitation 0.00 in - - ()
Sea Level Pressure  
Sea Level Pressure 30.26 in    
Wind  
Wind Speed 2 mph (North)    
Max Wind Speed 6 mph    
Max Gust Speed -    
Averages and records for this station are not official NWS values.
T = Trace of Precipitation, MM = Missing Value Source: NWS Daily Summary

Daily Weather History Graph

Daily Weather History Graph

Search for Another Location

Airport or City:

Trip Planner

Search our weather history database for the weather conditions in past years. The results will help you decide how hot, cold, wet, or windy it might be!

Date:

Astronomy

Nov. 16, 2012 Rise Set
Actual Time 6:30 AM CST 5:09 PM CST
Civil Twilight 6:05 AM CST 5:34 PM CST
Nautical Twilight 5:36 AM CST 6:03 PM CST
Astronomical Twilight 5:08 AM CST 6:31 PM CST
Moon 9:21 AM CST (11/16) 8:11 PM CST (11/16)
Length of Visible Light 11h 28m
Length of Day
10h 38m
Waxing Crescent, 12% of the Moon is Illuminated
Nov 16
Waxing Crescent
Nov 20
First Quarter
Nov 28
Full
Dec 6
Last Quarter
Dec 13
New

Hourly Weather History & Observations

Time (CST) Temp. Dew Point Humidity Pressure Visibility Wind Dir Wind Speed Gust Speed Precip Events Conditions
12:53 AM 50.0 °F 42.1 °F 74% 30.25 in - Calm Calm - N/A   Unknown
1:53 AM 48.9 °F 43.0 °F 80% 30.25 in - Calm Calm - N/A   Unknown
2:53 AM 48.9 °F 43.0 °F 80% 30.25 in - North 4.6 mph - N/A   Unknown
3:53 AM 48.0 °F 43.0 °F 83% 30.25 in - North 3.5 mph - N/A   Unknown
4:53 AM 48.0 °F 43.0 °F 83% 30.24 in - Calm Calm - N/A   Unknown
5:53 AM 46.9 °F 43.0 °F 86% 30.25 in - Variable 3.5 mph - N/A   Unknown
6:53 AM 46.9 °F 43.0 °F 86% 30.26 in - Variable 3.5 mph - N/A   Unknown
7:53 AM 51.1 °F 45.0 °F 80% 30.28 in - Variable 4.6 mph - N/A   Unknown
8:53 AM 57.0 °F 46.0 °F 67% 30.30 in - Variable 4.6 mph - N/A   Unknown
9:53 AM 61.0 °F 45.0 °F 56% 30.30 in - Variable 5.8 mph - N/A   Unknown
10:53 AM 64.0 °F 43.0 °F 46% 30.29 in - Variable 4.6 mph - N/A   Unknown
11:53 AM 64.9 °F 42.1 °F 43% 30.27 in - Variable 5.8 mph - N/A   Unknown
12:53 PM 66.9 °F 42.1 °F 40% 30.24 in - Variable 5.8 mph - N/A   Unknown
1:53 PM 66.9 °F 41.0 °F 39% 30.22 in - Variable 4.6 mph - N/A   Unknown
2:53 PM 66.9 °F 41.0 °F 39% 30.22 in - Variable 4.6 mph - N/A   Unknown
3:53 PM 66.9 °F 42.1 °F 40% 30.22 in - Variable 3.5 mph - N/A   Unknown
4:53 PM 64.0 °F 44.1 °F 48% 30.23 in - Calm Calm - N/A   Unknown
5:53 PM 57.0 °F 46.9 °F 69% 30.25 in - Calm Calm - N/A   Unknown
6:53 PM 55.9 °F 45.0 °F 67% 30.26 in - Calm Calm - N/A   Unknown
7:53 PM 55.0 °F 44.1 °F 67% 30.27 in - Calm Calm - N/A   Unknown
8:53 PM 54.0 °F 43.0 °F 66% 30.28 in - Calm Calm - N/A   Unknown
9:53 PM 53.1 °F 43.0 °F 69% 30.29 in - North 3.5 mph - N/A   Unknown
10:53 PM 52.0 °F 42.1 °F 69% 30.30 in - Calm Calm - N/A   Unknown
11:53 PM 52.0 °F 41.0 °F 66% 30.30 in - North 3.5 mph - N/A   Unknown